Time,TemperatureF,DewpointF,PressureIn,WindDirection,WindDirectionDegrees,WindSpeedMPH,WindSpeedGustMPH,Humidity,HourlyPrecipIn,Conditions,Clouds,dailyrainin,SolarRadiationWatts/m^2,SoftwareType,DateUTC
2013-01-03 00:11:00,39.5,32.0,30.48,ESE,102,4.0,-999.0,74,-99.99,,,0.00,0,weatherlink.com 1.10,2013-01-02 23:11:00,
2013-01-03 00:26:00,39.5,32.0,30.49,SE,137,2.0,-999.0,74,-99.99,,,0.00,0,weatherlink.com 1.10,2013-01-02 23:26:00,
2013-01-03 00:41:00,39.5,32.0,30.49,SE,142,0.0,-999.0,75,-99.99,,,0.00,0,weatherlink.com 1.10,2013-01-02 23:41:00,
2013-01-03 00:55:00,39.4,32.0,30.49,SE,139,1.0,-999.0,75,-99.99,,,0.00,0,weatherlink.com 1.10,2013-01-02 23:55:00,
2013-01-03 01:11:00,39.3,32.0,30.49,East,85,1.0,-999.0,75,-99.99,,,0.00,0,weatherlink.com 1.10,2013-01-03 00:11:00,
2013-01-03 01:26:00,39.2,32.0,30.49,SW,221,4.0,-999.0,76,-99.99,,,0.00,0,weatherlink.com 1.10,2013-01-03 00:26:00,
2013-01-03 01:41:00,39.1,32.0,30.49,SSW,198,0.0,-999.0,76,-99.99,,,0.00,0,weatherlink.com 1.10,2013-01-03 00:41:00,
2013-01-03 01:56:00,39.1,32.0,30.50,SE,125,0.0,-999.0,77,-99.99,,,0.00,0,weatherlink.com 1.10,2013-01-03 00:56:00,
2013-01-03 02:11:00,39.1,32.0,30.50,South,179,1.0,-999.0,77,-99.99,,,0.00,0,weatherlink.com 1.10,2013-01-03 01:11:00,
2013-01-03 02:26:00,39.0,32.0,30.50,SSW,195,0.0,-999.0,77,-99.99,,,0.00,0,weatherlink.com 1.10,2013-01-03 01:26:00,
2013-01-03 02:41:00,38.9,32.0,30.50,SSW,198,1.0,-999.0,77,-99.99,,,0.00,0,weatherlink.com 1.10,2013-01-03 01:41:00,
2013-01-03 02:56:00,38.7,32.0,30.51,SSE,162,0.0,-999.0,77,-99.99,,,0.00,0,weatherlink.com 1.10,2013-01-03 01:56:00,
2013-01-03 03:11:00,38.3,32.0,30.50,SSW,204,3.0,-999.0,78,-99.99,,,0.00,0,weatherlink.com 1.10,2013-01-03 02:11:00,
2013-01-03 03:26:00,37.9,32.0,30.50,SSW,209,0.0,-999.0,78,-99.99,,,0.00,0,weatherlink.com 1.10,2013-01-03 02:26:00,
2013-01-03 03:40:00,37.6,31.0,30.49,SW,234,0.0,-999.0,78,-99.99,,,0.00,0,weatherlink.com 1.10,2013-01-03 02:40:00,
2013-01-03 03:56:00,37.2,31.0,30.48,South,183,0.0,-999.0,79,-99.99,,,0.00,0,weatherlink.com 1.10,2013-01-03 02:56:00,
2013-01-03 04:11:00,36.7,31.0,30.48,SW,227,0.0,-999.0,80,-99.99,,,0.00,0,weatherlink.com 1.10,2013-01-03 03:11:00,
2013-01-03 04:26:00,36.5,31.0,30.48,South,171,2.0,-999.0,81,-99.99,,,0.00,0,weatherlink.com 1.10,2013-01-03 03:26:00,
2013-01-03 04:41:00,36.3,31.0,30.48,SW,215,1.0,-999.0,81,-99.99,,,0.00,0,weatherlink.com 1.10,2013-01-03 03:41:00,
2013-01-03 04:56:00,36.3,31.0,30.48,SSE,154,1.0,-999.0,82,-99.99,,,0.00,0,weatherlink.com 1.10,2013-01-03 03:56:00,
2013-01-03 05:11:00,36.2,31.0,30.48,SW,223,2.0,-999.0,82,-99.99,,,0.00,0,weatherlink.com 1.10,2013-01-03 04:11:00,
2013-01-03 05:26:00,36.1,31.0,30.47,SSW,208,2.0,-999.0,83,-99.99,,,0.00,0,weatherlink.com 1.10,2013-01-03 04:26:00,
2013-01-03 05:41:00,36.1,31.0,30.46,SSW,212,3.0,-999.0,83,-99.99,,,0.00,0,weatherlink.com 1.10,2013-01-03 04:41:00,
2013-01-03 05:56:00,36.2,32.0,30.45,SW,216,4.0,-999.0,83,-99.99,,,0.00,0,weatherlink.com 1.10,2013-01-03 04:56:00,
2013-01-03 06:25:00,36.9,32.0,30.45,SW,221,2.0,-999.0,82,-99.99,,,0.00,0,weatherlink.com 1.10,2013-01-03 05:25:00,
2013-01-03 06:41:00,37.2,32.0,30.44,SSW,192,3.0,-999.0,81,-99.99,,,0.00,0,weatherlink.com 1.10,2013-01-03 05:41:00,
2013-01-03 06:56:00,37.3,32.0,30.44,East,87,1.0,-999.0,81,-99.99,,,0.00,0,weatherlink.com 1.10,2013-01-03 05:56:00,
2013-01-03 07:11:00,37.4,32.0,30.44,South,172,1.0,-999.0,81,-99.99,,,0.00,0,weatherlink.com 1.10,2013-01-03 06:11:00,
2013-01-03 07:26:00,37.5,32.0,30.44,South,191,2.0,-999.0,81,-99.99,,,0.00,0,weatherlink.com 1.10,2013-01-03 06:26:00,
2013-01-03 07:41:00,37.7,32.0,30.43,NE,40,1.0,-999.0,80,-99.99,,,0.00,0,weatherlink.com 1.10,2013-01-03 06:41:00,
2013-01-03 07:56:00,37.8,32.0,30.43,ESE,108,0.0,-999.0,80,-99.99,,,0.00,0,weatherlink.com 1.10,2013-01-03 06:56:00,
2013-01-03 08:11:00,37.9,32.0,30.42,South,178,6.0,-999.0,80,-99.99,,,0.00,0,weatherlink.com 1.10,2013-01-03 07:11:00,
2013-01-03 08:26:00,38.2,33.0,30.42,SE,126,2.0,-999.0,80,-99.99,,,0.00,5,weatherlink.com 1.10,2013-01-03 07:26:00,
2013-01-03 08:40:00,38.3,32.0,30.43,SSE,158,1.0,-999.0,79,-99.99,,,0.00,9,weatherlink.com 1.10,2013-01-03 07:40:00,
2013-01-03 08:56:00,38.5,33.0,30.42,WNW,303,1.0,-999.0,79,-99.99,,,0.00,12,weatherlink.com 1.10,2013-01-03 07:56:00,
2013-01-03 09:11:00,38.7,32.0,30.43,SE,138,1.0,-999.0,78,-99.99,,,0.00,25,weatherlink.com 1.10,2013-01-03 08:11:00,
2013-01-03 09:27:00,39.1,33.0,30.42,SE,129,1.0,-999.0,79,-99.99,,,0.00,23,weatherlink.com 1.10,2013-01-03 08:27:00,
2013-01-03 09:40:00,39.4,33.0,30.43,SE,135,5.0,-999.0,78,-99.99,,,0.00,25,weatherlink.com 1.10,2013-01-03 08:40:00,
2013-01-03 09:56:00,39.5,34.0,30.42,ESE,104,9.0,-999.0,79,-99.99,,,0.00,21,weatherlink.com 1.10,2013-01-03 08:56:00,
2013-01-03 10:11:00,39.3,34.0,30.42,ESE,106,0.0,-999.0,82,-99.99,,,0.02,37,weatherlink.com 1.10,2013-01-03 09:11:00,
2013-01-03 10:26:00,39.0,35.0,30.42,SE,142,2.0,-999.0,84,-99.99,,,0.02,42,weatherlink.com 1.10,2013-01-03 09:26:00,
2013-01-03 10:41:00,38.8,35.0,30.42,SE,144,7.0,-999.0,85,-99.99,,,0.02,35,weatherlink.com 1.10,2013-01-03 09:41:00,
2013-01-03 10:56:00,38.5,35.0,30.42,ENE,60,6.0,-999.0,86,-99.99,,,0.03,23,weatherlink.com 1.10,2013-01-03 09:56:00,
2013-01-03 11:11:00,38.4,35.0,30.42,SE,138,6.0,-999.0,87,-99.99,,,0.04,21,weatherlink.com 1.10,2013-01-03 10:11:00,
2013-01-03 11:26:00,38.4,35.0,30.41,ESE,118,5.0,-999.0,87,-99.99,,,0.04,23,weatherlink.com 1.10,2013-01-03 10:26:00,
2013-01-03 11:41:00,38.6,35.0,30.41,SSE,160,2.0,-999.0,87,-99.99,,,0.04,67,weatherlink.com 1.10,2013-01-03 10:41:00,
2013-01-03 11:56:00,39.0,35.0,30.41,SE,139,6.0,-999.0,86,-99.99,,,0.04,90,weatherlink.com 1.10,2013-01-03 10:56:00,
2013-01-03 12:11:00,40.0,36.0,30.41,SE,143,10.0,-999.0,85,-99.99,,,0.04,56,weatherlink.com 1.10,2013-01-03 11:11:00,
2013-01-03 12:25:00,40.2,36.0,30.41,SSW,192,7.0,-999.0,84,-99.99,,,0.04,47,weatherlink.com 1.10,2013-01-03 11:25:00,
2013-01-03 12:41:00,40.2,36.0,30.40,NNE,32,3.0,-999.0,84,-99.99,,,0.04,67,weatherlink.com 1.10,2013-01-03 11:41:00,
2013-01-03 12:56:00,40.5,36.0,30.40,SE,124,4.0,-999.0,84,-99.99,,,0.04,74,weatherlink.com 1.10,2013-01-03 11:56:00,
2013-01-03 13:11:00,40.6,36.0,30.39,SE,133,5.0,-999.0,84,-99.99,,,0.04,74,weatherlink.com 1.10,2013-01-03 12:11:00,
2013-01-03 13:26:00,40.7,36.0,30.39,SSW,199,3.0,-999.0,84,-99.99,,,0.04,104,weatherlink.com 1.10,2013-01-03 12:26:00,
2013-01-03 13:41:00,41.2,37.0,30.39,SE,140,6.0,-999.0,84,-99.99,,,0.04,98,weatherlink.com 1.10,2013-01-03 12:41:00,
2013-01-03 13:56:00,41.4,37.0,30.40,East,96,6.0,-999.0,83,-99.99,,,0.04,47,weatherlink.com 1.10,2013-01-03 12:56:00,
2013-01-03 14:11:00,41.4,37.0,30.40,NE,56,4.0,-999.0,83,-99.99,,,0.04,40,weatherlink.com 1.10,2013-01-03 13:11:00,
2013-01-03 14:26:00,41.5,37.0,30.41,SE,146,2.0,-999.0,84,-99.99,,,0.04,35,weatherlink.com 1.10,2013-01-03 13:26:00,
2013-01-03 14:41:00,41.3,37.0,30.42,ENE,67,1.0,-999.0,85,-99.99,,,0.04,32,weatherlink.com 1.10,2013-01-03 13:41:00,
2013-01-03 14:56:00,41.3,37.0,30.41,SW,231,3.0,-999.0,85,-99.99,,,0.04,32,weatherlink.com 1.10,2013-01-03 13:56:00,
2013-01-03 15:11:00,41.4,37.0,30.42,ESE,104,1.0,-999.0,85,-99.99,,,0.04,23,weatherlink.com 1.10,2013-01-03 14:11:00,
2013-01-03 15:26:00,41.3,37.0,30.42,ENE,67,4.0,-999.0,85,-99.99,,,0.04,9,weatherlink.com 1.10,2013-01-03 14:26:00,
2013-01-03 15:41:00,41.3,37.0,30.43,North,4,2.0,-999.0,85,-99.99,,,0.04,11,weatherlink.com 1.10,2013-01-03 14:41:00,
2013-01-03 15:56:00,41.4,37.0,30.43,ESE,110,2.0,-999.0,85,-99.99,,,0.04,7,weatherlink.com 1.10,2013-01-03 14:56:00,
2013-01-03 16:11:00,41.4,37.0,30.43,North,359,2.0,-999.0,85,-99.99,,,0.04,0,weatherlink.com 1.10,2013-01-03 15:11:00,
2013-01-03 16:26:00,41.5,37.0,30.44,SSE,147,6.0,-999.0,85,-99.99,,,0.04,0,weatherlink.com 1.10,2013-01-03 15:26:00,
2013-01-03 16:41:00,41.4,37.0,30.43,East,85,4.0,-999.0,85,-99.99,,,0.04,0,weatherlink.com 1.10,2013-01-03 15:41:00,
2013-01-03 16:56:00,41.5,37.0,30.43,ESE,114,2.0,-999.0,85,-99.99,,,0.04,0,weatherlink.com 1.10,2013-01-03 15:56:00,
2013-01-03 17:11:00,41.7,38.0,30.44,ESE,115,6.0,-999.0,85,-99.99,,,0.04,0,weatherlink.com 1.10,2013-01-03 16:11:00,
2013-01-03 17:26:00,41.9,38.0,30.44,ESE,120,7.0,-999.0,85,-99.99,,,0.04,0,weatherlink.com 1.10,2013-01-03 16:26:00,
2013-01-03 17:41:00,42.2,38.0,30.44,ESE,109,2.0,-999.0,85,-99.99,,,0.04,0,weatherlink.com 1.10,2013-01-03 16:41:00,
2013-01-03 17:56:00,42.3,38.0,30.44,SSE,148,1.0,-999.0,85,-99.99,,,0.04,0,weatherlink.com 1.10,2013-01-03 16:56:00,
2013-01-03 18:11:00,42.5,38.0,30.45,East,92,0.0,-999.0,85,-99.99,,,0.04,0,weatherlink.com 1.10,2013-01-03 17:11:00,
2013-01-03 18:26:00,42.5,38.0,30.45,South,172,5.0,-999.0,85,-99.99,,,0.04,0,weatherlink.com 1.10,2013-01-03 17:26:00,
2013-01-03 18:41:00,42.7,39.0,30.45,South,177,4.0,-999.0,85,-99.99,,,0.04,0,weatherlink.com 1.10,2013-01-03 17:41:00,
2013-01-03 18:56:00,42.8,39.0,30.45,West,262,5.0,-999.0,85,-99.99,,,0.04,0,weatherlink.com 1.10,2013-01-03 17:56:00,
2013-01-03 19:11:00,42.8,39.0,30.45,SSE,147,2.0,-999.0,85,-99.99,,,0.04,0,weatherlink.com 1.10,2013-01-03 18:11:00,
2013-01-03 19:26:00,42.8,39.0,30.45,SSE,155,1.0,-999.0,85,-99.99,,,0.04,0,weatherlink.com 1.10,2013-01-03 18:26:00,
2013-01-03 19:41:00,42.8,39.0,30.45,ESE,107,8.0,-999.0,85,-99.99,,,0.04,0,weatherlink.com 1.10,2013-01-03 18:41:00,
2013-01-03 19:56:00,42.8,39.0,30.45,ESE,121,6.0,-999.0,85,-99.99,,,0.04,0,weatherlink.com 1.10,2013-01-03 18:56:00,
2013-01-03 20:11:00,42.8,39.0,30.45,SSE,155,5.0,-999.0,86,-99.99,,,0.04,0,weatherlink.com 1.10,2013-01-03 19:11:00,
2013-01-03 20:56:00,42.7,39.0,30.45,SSE,167,2.0,-999.0,86,-99.99,,,0.04,0,weatherlink.com 1.10,2013-01-03 19:56:00,
2013-01-03 21:11:00,42.6,39.0,30.46,ESE,118,1.0,-999.0,87,-99.99,,,0.04,0,weatherlink.com 1.10,2013-01-03 20:11:00,
2013-01-03 21:26:00,42.8,39.0,30.45,ESE,110,2.0,-999.0,87,-99.99,,,0.04,0,weatherlink.com 1.10,2013-01-03 20:26:00,
2013-01-03 21:41:00,43.0,39.0,30.45,SE,146,12.0,-999.0,87,-99.99,,,0.04,0,weatherlink.com 1.10,2013-01-03 20:41:00,
2013-01-03 21:56:00,43.3,39.0,30.46,SE,140,2.0,-999.0,86,-99.99,,,0.04,0,weatherlink.com 1.10,2013-01-03 20:56:00,
2013-01-03 22:11:00,43.4,40.0,30.45,NNW,334,1.0,-999.0,86,-99.99,,,0.04,0,weatherlink.com 1.10,2013-01-03 21:11:00,
2013-01-03 22:26:00,43.6,40.0,30.45,SE,129,6.0,-999.0,86,-99.99,,,0.04,0,weatherlink.com 1.10,2013-01-03 21:26:00,
2013-01-03 22:56:00,44.0,40.0,30.45,NNE,27,3.0,-999.0,85,-99.99,,,0.04,0,weatherlink.com 1.10,2013-01-03 21:56:00,
2013-01-03 23:11:00,44.2,40.0,30.46,SE,142,4.0,-999.0,85,-99.99,,,0.04,0,weatherlink.com 1.10,2013-01-03 22:11:00,
2013-01-03 23:26:00,44.4,40.0,30.45,NE,54,5.0,-999.0,85,-99.99,,,0.04,0,weatherlink.com 1.10,2013-01-03 22:26:00,
2013-01-03 23:41:00,44.5,40.0,30.45,SSE,149,3.0,-999.0,85,-99.99,,,0.04,0,weatherlink.com 1.10,2013-01-03 22:41:00,
2013-01-03 23:55:00,44.6,40.0,30.45,ESE,112,2.0,-999.0,85,-99.99,,,0.04,0,weatherlink.com 1.10,2013-01-03 22:55:00,